Flag for Canada Weather past 2 weeks in Prince Albert, Saskatchewan, Canada

Now
21 °F

Snow flurries. Ice fog.


Feels Like: 21 °F
Forecast: 21 / 25 °F
Wind: 2 mph from East

Location: Prince Albert

Current Time: Dec 21, 2014 at 1:23:34 AM

Latest Report: Dec 21, 2014 at 1:00 AM


Visibility: 0 mi

Pressure: 29.68 "Hg

Humidity: 93%

Dew point: 19 °F

Location of Prince AlbertLocation

Historic Weather in Prince Albert — Graph

°F

Prince Albert temperature yesterday

Maximum temperature yesterday: 21 °F (at 11:00 PM)
Minimum temperature yesterday: 16 °F (at 12:00 AM)
Average temperature yesterday: 18 °F

Past Weeks' High & Low Weather Summary

 TemperatureHumidityPressure
High43 °F (Dec 11, 2:00 PM)100% (Dec 6, 7:00 PM)30.46 "Hg (Dec 6, 7:00 PM)
Low-6 °F (Dec 8, 10:00 AM)66% (Dec 11, 2:00 PM)29.53 "Hg (Dec 11, 1:00 PM)
Average20 °F90%30.05 "Hg
* Reported Midnight between Dec 5 and Dec 6 — Midnight between Dec 20 and Dec 21, Prince Albert, Weather by CustomWeather, © 2014

Note: Actual official high and low records may vary slightly from our data, if they occured in-between our weather recording intervals... More about our weather records

Advertising

Prince Albert weather history for previous 24 hours

 ConditionsComfort  
Time TempWeatherWind HumidityBarometerVisibility
12:00 AM
Dec 21
21 °FSnow flurries. Ice fog.No wind93%29.70 "Hg1 mi
11:00 PM
Dec 20
21 °FSnow flurries. Ice fog.3 mph93%29.70 "Hg1 mi
10:00 PM19 °FSnow flurries. Ice fog.3 mph100%29.72 "Hg1 mi
9:00 PM19 °FSnow flurries. Ice fog.No wind100%29.75 "Hg3 mi
8:00 PM19 °FLight snow. Ice fog.2 mph100%29.76 "Hg6 mi
7:00 PM19 °FLight snow. Low clouds.3 mph100%29.77 "Hg8 mi
6:00 PM19 °FLight snow. Low clouds.6 mph93%29.78 "Hg12 mi
5:00 PM19 °FLight snow. Low clouds.7 mph93%29.79 "Hg12 mi
4:00 PM19 °FLight snow. Low clouds.7 mph93%29.80 "Hg10 mi
3:00 PM19 °FLight snow. Cloudy.7 mph100%29.79 "Hg8 mi
2:00 PM19 °FLight snow. Ice fog.7 mph93%29.82 "Hg4 mi
1:00 PM19 °FLight snow. Ice fog.8 mph93%29.83 "Hg3 mi
12:50 PM19 °FLight snow. Ice fog.7 mph93%29.83 "Hg3 mi
12:00 PM18 °FLight snow. Ice fog.9 mph100%29.85 "Hg6 mi
11:00 AM18 °FLight snow. Ice fog.8 mph93%29.86 "Hg6 mi
10:00 AM18 °FLight snow. Ice fog.7 mph100%29.87 "Hg5 mi
9:00 AM18 °FLight snow. Ice fog.8 mph93%29.87 "Hg4 mi
8:00 AM18 °FLight snow. Ice fog.10 mph93%29.88 "Hg5 mi
7:00 AM16 °FLight snow. Ice fog.9 mph93%29.89 "Hg5 mi
6:00 AM16 °FIce fog.13 mph93%29.91 "Hg4 mi
5:00 AM16 °FLight snow. Ice fog.10 mph100%29.92 "Hg3 mi
4:00 AM16 °FIce fog.9 mph93%29.94 "Hg3 mi
3:00 AM16 °FIce fog.6 mph93%29.95 "Hg2 mi
2:00 AM16 °FIce fog.9 mph93%29.95 "Hg1 mi
1:49 AM16 °FIce fog.8 mph100%29.96 "Hg1 mi
1:00 AM16 °FIce fog.6 mph93%29.98 "Hg1 mi
Weather by CustomWeather, © 2014

See weather overviewHow to use our weather pages